Time,TemperatureF,DewpointF,PressureIn,WindDirection,WindDirectionDegrees,WindSpeedMPH,WindSpeedGustMPH,Humidity,HourlyPrecipIn,Conditions,Clouds,dailyrainin,SoftwareType,DateUTC
2013-05-25 00:15:00,52.5,52.0,30.00,ESE,112,0.0,-999.0,98,-99.99,,,0.00,Acu-Link.com,2013-05-25 04:15:00,
2013-05-25 00:30:00,51.4,50.9,30.00,West,270,0.0,-999.0,98,-99.99,,,0.00,Acu-Link.com,2013-05-25 04:30:00,
2013-05-25 00:45:00,51.1,50.6,30.00,NNW,337,0.0,-999.0,98,-99.99,,,0.00,Acu-Link.com,2013-05-25 04:45:00,
2013-05-25 01:00:00,50.5,50.0,30.01,West,270,0.0,-999.0,98,-99.99,,,0.00,Acu-Link.com,2013-05-25 05:00:00,
2013-05-25 01:15:00,50.4,49.9,30.01,South,180,0.0,-999.0,98,-99.99,,,0.00,Acu-Link.com,2013-05-25 05:15:00,
2013-05-25 01:30:00,50.0,49.5,30.01,NW,315,0.0,-999.0,98,-99.99,,,0.00,Acu-Link.com,2013-05-25 05:30:00,
2013-05-25 01:46:00,49.3,48.8,30.02,NW,315,0.0,-999.0,98,-99.99,,,0.00,Acu-Link.com,2013-05-25 05:46:00,
2013-05-25 02:01:00,49.3,48.8,30.01,NW,315,0.0,-999.0,98,-99.99,,,0.00,Acu-Link.com,2013-05-25 06:01:00,
2013-05-25 02:16:00,49.5,49.0,30.00,ENE,67,0.0,-999.0,98,-99.99,,,0.00,Acu-Link.com,2013-05-25 06:16:00,
2013-05-25 02:31:00,48.7,48.2,30.01,West,270,0.0,-999.0,98,-99.99,,,0.00,Acu-Link.com,2013-05-25 06:31:00,
2013-05-25 02:46:00,48.9,48.4,30.01,SSE,157,0.0,-999.0,98,-99.99,,,0.00,Acu-Link.com,2013-05-25 06:46:00,
2013-05-25 03:01:00,48.7,48.2,30.01,West,270,0.0,-999.0,98,-99.99,,,0.00,Acu-Link.com,2013-05-25 07:01:00,
2013-05-25 03:16:00,48.2,47.7,30.01,NW,315,0.0,-999.0,98,-99.99,,,0.00,Acu-Link.com,2013-05-25 07:16:00,
2013-05-25 03:31:00,48.0,47.5,30.00,NNW,337,0.0,-999.0,98,-99.99,,,0.00,Acu-Link.com,2013-05-25 07:31:00,
2013-05-25 03:46:00,47.8,47.3,30.00,West,270,0.0,-999.0,98,-99.99,,,0.00,Acu-Link.com,2013-05-25 07:46:00,
2013-05-25 04:01:00,48.4,47.9,30.01,SSE,157,0.0,-999.0,98,-99.99,,,0.00,Acu-Link.com,2013-05-25 08:01:00,
2013-05-25 04:17:00,47.8,47.3,30.00,SSW,202,0.0,-999.0,98,-99.99,,,0.00,Acu-Link.com,2013-05-25 08:17:00,
2013-05-25 04:32:00,47.3,46.8,30.01,WNW,292,0.0,-999.0,98,-99.99,,,0.00,Acu-Link.com,2013-05-25 08:32:00,
2013-05-25 04:47:00,48.4,47.9,30.02,SW,225,0.0,-999.0,98,-99.99,,,0.00,Acu-Link.com,2013-05-25 08:47:00,
2013-05-25 05:02:00,48.2,47.7,30.03,South,180,1.1,-999.0,98,-99.99,,,0.00,Acu-Link.com,2013-05-25 09:02:00,
2013-05-25 05:18:00,48.2,47.7,30.03,SW,225,0.0,-999.0,98,-99.99,,,0.00,Acu-Link.com,2013-05-25 09:18:00,
2013-05-25 05:33:00,48.0,47.5,30.03,NE,45,0.0,-999.0,98,-99.99,,,0.00,Acu-Link.com,2013-05-25 09:33:00,
2013-05-25 05:49:00,46.9,46.4,30.04,South,180,0.0,-999.0,98,-99.99,,,0.00,Acu-Link.com,2013-05-25 09:49:00,
2013-05-25 06:04:00,46.4,45.9,30.04,WNW,292,0.0,-999.0,98,-99.99,,,0.00,Acu-Link.com,2013-05-25 10:04:00,
2013-05-25 06:19:00,46.4,45.9,30.05,East,90,0.0,-999.0,98,-99.99,,,0.00,Acu-Link.com,2013-05-25 10:19:00,
2013-05-25 06:34:00,46.8,46.3,30.04,South,180,0.0,-999.0,98,-99.99,,,0.00,Acu-Link.com,2013-05-25 10:34:00,
2013-05-25 06:49:00,46.9,46.4,30.05,ENE,67,0.0,-999.0,98,-99.99,,,0.00,Acu-Link.com,2013-05-25 10:49:00,
2013-05-25 07:04:00,48.6,48.1,30.05,ENE,67,0.0,-999.0,98,-99.99,,,0.00,Acu-Link.com,2013-05-25 11:04:00,
2013-05-25 07:19:00,50.7,50.2,30.06,NNW,337,0.0,-999.0,98,-99.99,,,0.00,Acu-Link.com,2013-05-25 11:19:00,
2013-05-25 07:35:00,54.5,53.9,30.06,ESE,112,0.0,-999.0,98,-99.99,,,0.00,Acu-Link.com,2013-05-25 11:35:00,
2013-05-25 07:50:00,57.9,55.6,30.07,NE,45,0.0,-999.0,92,-99.99,,,0.00,Acu-Link.com,2013-05-25 11:50:00,
2013-05-25 08:05:00,62.2,56.3,30.07,NNW,337,1.1,-999.0,81,-99.99,,,0.00,Acu-Link.com,2013-05-25 12:05:00,
2013-05-25 08:20:00,62.6,55.6,30.07,NW,315,0.0,-999.0,78,-99.99,,,0.00,Acu-Link.com,2013-05-25 12:20:00,
2013-05-25 08:35:00,60.1,54.2,30.07,NNW,337,3.2,-999.0,81,-99.99,,,0.00,Acu-Link.com,2013-05-25 12:35:00,
2013-05-25 08:50:00,60.4,53.9,30.07,NNE,22,2.7,-999.0,79,-99.99,,,0.00,Acu-Link.com,2013-05-25 12:50:00,
2013-05-25 09:05:00,61.3,54.0,30.07,NNE,22,4.2,-999.0,77,-99.99,,,0.00,Acu-Link.com,2013-05-25 13:05:00,
2013-05-25 09:21:00,63.0,54.2,30.07,NNE,22,1.1,-999.0,73,-99.99,,,0.00,Acu-Link.com,2013-05-25 13:21:00,
2013-05-25 09:36:00,63.5,54.3,30.08,ENE,67,3.2,-999.0,72,-99.99,,,0.00,Acu-Link.com,2013-05-25 13:36:00,
2013-05-25 09:51:00,64.2,53.0,30.08,ENE,67,3.2,-999.0,67,-99.99,,,0.00,Acu-Link.com,2013-05-25 13:51:00,
2013-05-25 10:06:00,65.3,53.2,30.07,NE,45,2.2,-999.0,65,-99.99,,,0.00,Acu-Link.com,2013-05-25 14:06:00,
2013-05-25 10:21:00,66.2,53.2,30.07,NNE,22,5.3,-999.0,63,-99.99,,,0.00,Acu-Link.com,2013-05-25 14:21:00,
2013-05-25 10:36:00,66.2,52.3,30.07,NNE,22,5.3,-999.0,61,-99.99,,,0.00,Acu-Link.com,2013-05-25 14:36:00,
2013-05-25 10:51:00,67.3,53.4,30.06,SSE,157,3.7,-999.0,61,-99.99,,,0.00,Acu-Link.com,2013-05-25 14:51:00,
2013-05-25 11:06:00,67.6,52.3,30.06,NNE,22,6.8,-999.0,58,-99.99,,,0.00,Acu-Link.com,2013-05-25 15:06:00,
2013-05-25 11:21:00,68.5,53.1,30.06,North,0,8.3,-999.0,58,-99.99,,,0.00,Acu-Link.com,2013-05-25 15:21:00,
2013-05-25 11:37:00,69.4,54.9,30.07,ENE,67,2.2,-999.0,60,-99.99,,,0.00,Acu-Link.com,2013-05-25 15:37:00,
2013-05-25 11:52:00,70.3,55.3,30.06,SSW,202,3.2,-999.0,59,-99.99,,,0.00,Acu-Link.com,2013-05-25 15:52:00,
2013-05-25 12:07:00,71.1,53.1,30.05,NW,315,6.8,-999.0,53,-99.99,,,0.00,Acu-Link.com,2013-05-25 16:07:00,
2013-05-25 12:22:00,71.6,53.6,30.04,ESE,112,4.2,-999.0,53,-99.99,,,0.00,Acu-Link.com,2013-05-25 16:22:00,
2013-05-25 12:37:00,72.9,54.2,30.04,South,180,1.1,-999.0,52,-99.99,,,0.00,Acu-Link.com,2013-05-25 16:37:00,
2013-05-25 12:52:00,73.2,54.0,30.03,NNE,22,2.2,-999.0,51,-99.99,,,0.00,Acu-Link.com,2013-05-25 16:52:00,
2013-05-25 13:07:00,73.9,55.2,30.02,South,180,1.1,-999.0,52,-99.99,,,0.00,Acu-Link.com,2013-05-25 17:07:00,
2013-05-25 13:22:00,73.8,55.1,30.02,NNE,22,2.7,-999.0,52,-99.99,,,0.00,Acu-Link.com,2013-05-25 17:22:00,
2013-05-25 13:37:00,75.9,55.4,30.01,West,270,2.2,-999.0,49,-99.99,,,0.00,Acu-Link.com,2013-05-25 17:37:00,
2013-05-25 13:53:00,75.4,53.2,30.01,South,180,3.2,-999.0,46,-99.99,,,0.00,Acu-Link.com,2013-05-25 17:53:00,
2013-05-25 14:08:00,77.4,56.7,30.00,East,90,2.7,-999.0,49,-99.99,,,0.00,Acu-Link.com,2013-05-25 18:08:00,
2013-05-25 14:23:00,75.7,54.0,30.00,ENE,67,2.2,-999.0,47,-99.99,,,0.00,Acu-Link.com,2013-05-25 18:23:00,
2013-05-25 14:38:00,76.3,52.8,29.99,SSE,157,3.7,-999.0,44,-99.99,,,0.00,Acu-Link.com,2013-05-25 18:38:00,
2013-05-25 14:53:00,77.2,51.0,29.99,ESE,112,2.2,-999.0,40,-99.99,,,0.00,Acu-Link.com,2013-05-25 18:53:00,
2013-05-25 15:08:00,77.7,53.4,29.98,ENE,67,2.2,-999.0,43,-99.99,,,0.00,Acu-Link.com,2013-05-25 19:08:00,
2013-05-25 15:23:00,79.3,52.9,29.97,NNW,337,0.0,-999.0,40,-99.99,,,0.00,Acu-Link.com,2013-05-25 19:23:00,
2013-05-25 15:38:00,79.5,55.0,29.97,North,0,3.7,-999.0,43,-99.99,,,0.00,Acu-Link.com,2013-05-25 19:38:00,
2013-05-25 15:53:00,79.2,54.1,29.97,North,0,4.2,-999.0,42,-99.99,,,0.00,Acu-Link.com,2013-05-25 19:53:00,
2013-05-25 16:09:00,78.8,52.4,29.97,NE,45,2.2,-999.0,40,-99.99,,,0.00,Acu-Link.com,2013-05-25 20:09:00,
2013-05-25 16:24:00,79.3,52.2,29.97,NNE,22,1.7,-999.0,39,-99.99,,,0.00,Acu-Link.com,2013-05-25 20:24:00,
2013-05-25 16:39:00,79.9,54.1,29.96,WSW,247,2.2,-999.0,41,-99.99,,,0.00,Acu-Link.com,2013-05-25 20:39:00,
2013-05-25 16:54:00,81.0,53.0,29.96,WSW,247,2.7,-999.0,38,-99.99,,,0.00,Acu-Link.com,2013-05-25 20:54:00,
2013-05-25 17:09:00,81.9,53.0,29.95,NE,45,3.7,-999.0,37,-99.99,,,0.00,Acu-Link.com,2013-05-25 21:09:00,
2013-05-25 17:24:00,83.5,51.3,29.94,NE,45,0.0,-999.0,33,-99.99,,,0.00,Acu-Link.com,2013-05-25 21:24:00,
2013-05-25 17:39:00,88.9,51.5,29.93,West,270,0.0,-999.0,28,-99.99,,,0.00,Acu-Link.com,2013-05-25 21:39:00,
2013-05-25 17:54:00,88.2,50.0,29.94,NNW,337,0.0,-999.0,27,-99.99,,,0.00,Acu-Link.com,2013-05-25 21:54:00,
2013-05-25 18:09:00,87.6,49.5,29.94,North,0,1.7,-999.0,27,-99.99,,,0.00,Acu-Link.com,2013-05-25 22:09:00,
2013-05-25 18:25:00,85.1,51.0,29.94,NE,45,1.1,-999.0,31,-99.99,,,0.00,Acu-Link.com,2013-05-25 22:25:00,
2013-05-25 18:40:00,86.4,49.4,29.93,NNE,22,1.7,-999.0,28,-99.99,,,0.00,Acu-Link.com,2013-05-25 22:40:00,
2013-05-25 18:55:00,83.5,51.3,29.93,NNW,337,1.1,-999.0,33,-99.99,,,0.00,Acu-Link.com,2013-05-25 22:55:00,
2013-05-25 19:10:00,81.3,51.0,29.93,West,270,0.0,-999.0,35,-99.99,,,0.00,Acu-Link.com,2013-05-25 23:10:00,
2013-05-25 19:25:00,78.4,54.0,29.93,WSW,247,0.0,-999.0,43,-99.99,,,0.00,Acu-Link.com,2013-05-25 23:25:00,
2013-05-25 19:40:00,76.5,55.9,29.92,East,90,0.0,-999.0,49,-99.99,,,0.00,Acu-Link.com,2013-05-25 23:40:00,
2013-05-25 19:55:00,74.8,58.0,29.93,NNW,337,0.0,-999.0,56,-99.99,,,0.00,Acu-Link.com,2013-05-25 23:55:00,
2013-05-25 20:11:00,72.5,59.6,29.92,NNW,337,0.0,-999.0,64,-99.99,,,0.00,Acu-Link.com,2013-05-26 00:11:00,
2013-05-25 20:26:00,70.5,59.0,29.93,NNW,337,0.0,-999.0,67,-99.99,,,0.00,Acu-Link.com,2013-05-26 00:26:00,
2013-05-25 20:41:00,68.2,59.2,29.92,NNW,337,0.0,-999.0,73,-99.99,,,0.00,Acu-Link.com,2013-05-26 00:41:00,
2013-05-25 20:56:00,66.6,59.9,29.91,NNW,337,0.0,-999.0,79,-99.99,,,0.00,Acu-Link.com,2013-05-26 00:56:00,
2013-05-25 21:11:00,64.8,59.2,29.92,NNW,337,0.0,-999.0,82,-99.99,,,0.00,Acu-Link.com,2013-05-26 01:11:00,
2013-05-25 21:26:00,63.5,58.6,29.91,NW,315,0.0,-999.0,84,-99.99,,,0.00,Acu-Link.com,2013-05-26 01:26:00,
2013-05-25 21:41:00,62.4,58.2,29.90,NNW,337,0.0,-999.0,86,-99.99,,,0.00,Acu-Link.com,2013-05-26 01:41:00,
2013-05-25 21:56:00,61.5,58.2,29.90,WSW,247,0.0,-999.0,89,-99.99,,,0.00,Acu-Link.com,2013-05-26 01:56:00,
2013-05-25 22:12:00,60.8,57.8,29.90,SW,225,0.0,-999.0,90,-99.99,,,0.00,Acu-Link.com,2013-05-26 02:12:00,
2013-05-25 22:27:00,59.9,57.6,29.90,East,90,0.0,-999.0,92,-99.99,,,0.00,Acu-Link.com,2013-05-26 02:27:00,
2013-05-25 22:42:00,59.4,57.4,29.91,NNW,337,0.0,-999.0,93,-99.99,,,0.00,Acu-Link.com,2013-05-26 02:42:00,
2013-05-25 22:57:00,58.8,57.4,29.89,SSW,202,2.7,-999.0,95,-99.99,,,0.00,Acu-Link.com,2013-05-26 02:57:00,
2013-05-25 23:12:00,58.1,57.3,29.92,North,0,1.1,-999.0,97,-99.99,,,0.00,Acu-Link.com,2013-05-26 03:12:00,
2013-05-25 23:27:00,57.6,57.0,29.93,South,180,0.0,-999.0,98,-99.99,,,0.00,Acu-Link.com,2013-05-26 03:27:00,
2013-05-25 23:42:00,56.8,56.2,29.93,WNW,292,0.0,-999.0,98,-99.99,,,0.00,Acu-Link.com,2013-05-26 03:42:00,
2013-05-25 23:57:00,56.3,55.7,29.93,WNW,292,0.0,-999.0,98,-99.99,,,0.00,Acu-Link.com,2013-05-26 03:57:00,